User: anonymous   Login
Location: LDNL
(36.4545°S, 141.6685°E)
Time: 07:53:08
(UTC+11:00)
Language:

S-56A Canister/Altair - Orbit

View from above orbital plane
View from above orbital plane
View from above satellite
View from above satellite

Ground track
Ground track

The orbit data is extracted from the following two-line orbital elements,

1    82U 61004B   22025.18304517 -.00000079  00000-0 -13757-4 0  9996
2    82  38.8525 185.8374 1174020  35.1476 332.1246 12.26009893879825
Epoch (UTC): 25 January 2022 04:23:35
Eccentricity: 0.1174020
inclination: 38.8525°
perigee height: 634 km
apogee height: 2499 km
right ascension of ascending node: 185.8374°
argument of perigee: 35.1476°
revolutions per day: 12.26009893
mean anomaly at epoch: 332.1246°
orbit number at epoch: 87982

The dashed part of the orbit path shows where the satellite is in the earth's shadow,  

DLR